Location: Ferchesar
(52.6477°N, 12.4298°E)
Time: 16:25:57
(UTC+01:00)

Tiros 1 - Pass Details

Date: 11 December 2021
Orbit: 629 x 664 km, 48.4° (Epoch: 22 January)

Event Time Altitude Azimuth Distance (km) Brightness Sun altitude
Rises 16:01:47 0° 215° (SW) 2,906 12.3 -1.6°
Reaches altitude 10° 16:04:27 10° 201° (SSW) 2,003 10.8 -1.9°
Maximum altitude 16:08:04 23° 150° (SSE) 1,348 8.9 -2.4°
Drops below altitude 10° 16:11:42 10° 98° (E) 2,020 9.3 -2.8°
Enters shadow 16:14:24 - 84° (E) 2,936 10.0 -3.1°
Sets 16:14:24 0° 84° (E) 2,937 10.0 -3.1°
